Owatonna, MN

1:26 AM CDT on September 26, 2016 (GMT -0500)
Owatonna Degner Regional

Weather History for KOWA - March, 2013

Change the Weather History Date:

Saturday, March 30, 2013

  Actual Average Record
Temperature  
Mean Temperature 44 °F -  
Max Temperature 51 °F 49 °F 81 °F (1968)
Min Temperature 37 °F 28 °F -3 °F (1969)
Degree Days  
Heating Degree Days 21    
Moisture  
Dew Point 36 °F    
Average Humidity 70    
Maximum Humidity 87    
Minimum Humidity 53    
Precipitation  
Precipitation 0.13 in - - ()
Sea Level Pressure  
Sea Level Pressure 29.92 in    
Wind  
Wind Speed 13 mph (SW)    
Max Wind Speed 21 mph    
Max Gust Speed 28 mph    
Visibility 6 miles    
Events Rain , Thunderstorm    
Averages and records for this station are not official NWS values.
T = Trace of Precipitation, MM = Missing Value Source: NWS Daily Summary

Daily Weather History Graph

Daily Weather History Graph

Search for Another Location

Airport or City:

Trip Planner

Search our weather history database for the weather conditions in past years. The results will help you decide how hot, cold, wet, or windy it might be!

Date:

Astronomy

Mar. 30, 2013 Rise Set
Actual Time 6:57 AM CDT 7:38 PM CDT
Civil Twilight 6:28 AM CDT 8:07 PM CDT
Nautical Twilight 5:53 AM CDT 8:41 PM CDT
Astronomical Twilight 5:18 AM CDT 9:17 PM CDT
Moon 11:54 PM CDT (3/30) 8:45 AM CDT (3/30)
Length of Visible Light 13h 38m
Length of Day
12h 40m
Waning Gibbous, 86% of the Moon is Illuminated
Mar 30
Waning Gibbous
Apr 2
Last Quarter
Apr 10
New
Apr 18
First Quarter
Apr 25
Full

Hourly Weather History & Observations

Time (CDT) Temp. Windchill Dew Point Humidity Pressure Visibility Wind Dir Wind Speed Gust Speed Precip Events Conditions
12:13 AM 46.4 °F 40.4 °F 33.8 °F 62% 30.07 in 10.0 mi SSE 13.8 mph - N/A   Overcast
12:34 AM 46.4 °F 40.1 °F 33.8 °F 62% 30.06 in 10.0 mi SSE 15.0 mph 21.9 mph N/A   Scattered Clouds
12:54 AM 46.4 °F 39.5 °F 32.0 °F 57% 30.05 in 10.0 mi SSE 17.3 mph 20.7 mph N/A   Scattered Clouds
1:13 AM 46.4 °F 39.5 °F 32.0 °F 57% 30.04 in 10.0 mi SSE 17.3 mph 24.2 mph N/A Thunderstorm Mostly Cloudy
1:33 AM 46.4 °F 39.5 °F 32.0 °F 57% 30.03 in 10.0 mi SSE 17.3 mph - N/A   Scattered Clouds
1:53 AM 46.4 °F 39.0 °F 32.0 °F 57% 30.02 in 10.0 mi SSE 19.6 mph 25.3 mph N/A   Clear
2:13 AM 46.4 °F 39.5 °F 30.2 °F 53% 30.01 in 10.0 mi SSE 17.3 mph 23.0 mph N/A   Clear
2:33 AM 46.4 °F 39.2 °F 30.2 °F 53% 30.01 in 10.0 mi SSE 18.4 mph 24.2 mph N/A   Mostly Cloudy
2:53 AM 46.4 °F 39.0 °F 30.2 °F 53% 30.00 in 10.0 mi SSE 19.6 mph 25.3 mph N/A   Overcast
3:13 AM 46.4 °F 39.2 °F 30.2 °F 53% 30.00 in 10.0 mi SSE 18.4 mph 25.3 mph N/A   Overcast
3:34 AM 46.4 °F 39.2 °F 30.2 °F 53% 30.00 in 10.0 mi SSE 18.4 mph 26.5 mph N/A   Overcast
3:53 AM 44.6 °F 36.4 °F 30.2 °F 57% 29.98 in 10.0 mi SSE 20.7 mph 25.3 mph N/A   Mostly Cloudy
4:13 AM 44.6 °F 36.6 °F 32.0 °F 61% 29.97 in 10.0 mi SSE 19.6 mph 25.3 mph N/A   Scattered Clouds
4:33 AM 44.6 °F 36.6 °F 32.0 °F 61% 29.96 in 10.0 mi SSE 19.6 mph 26.5 mph N/A   Scattered Clouds
4:53 AM 44.6 °F 36.4 °F 32.0 °F 61% 29.95 in 10.0 mi SSE 20.7 mph 27.6 mph N/A   Clear
5:13 AM 44.6 °F 37.2 °F 32.0 °F 61% 29.95 in 10.0 mi South 17.3 mph 24.2 mph N/A   Clear
5:34 AM 44.6 °F 37.8 °F 32.0 °F 61% 29.94 in 10.0 mi South 15.0 mph 23.0 mph N/A   Clear
5:53 AM 44.6 °F 37.2 °F 32.0 °F 61% 29.94 in 10.0 mi South 17.3 mph 23.0 mph N/A   Clear
6:13 AM 44.6 °F 38.1 °F 32.0 °F 61% 29.93 in 10.0 mi South 13.8 mph 20.7 mph N/A   Clear
6:33 AM 44.6 °F 37.4 °F 33.8 °F 66% 29.93 in 10.0 mi South 16.1 mph - N/A   Scattered Clouds
6:53 AM 44.6 °F 38.4 °F 33.8 °F 66% 29.93 in 10.0 mi South 12.7 mph - N/A   Mostly Cloudy
7:14 AM 42.8 °F 36.2 °F 33.8 °F 70% 29.92 in 10.0 mi South 12.7 mph - N/A   Mostly Cloudy
7:33 AM 44.6 °F 38.1 °F 33.8 °F 66% 29.92 in 7.0 mi SSE 13.8 mph - N/A   Mostly Cloudy
7:53 AM 44.6 °F 37.4 °F 33.8 °F 66% 29.92 in 10.0 mi South 16.1 mph 20.7 mph N/A   Overcast
8:13 AM 44.6 °F 37.8 °F 33.8 °F 66% 29.91 in 7.0 mi South 15.0 mph 20.7 mph N/A Rain Light Rain
8:33 AM 44.6 °F 37.2 °F 33.8 °F 66% 29.90 in 7.0 mi South 17.3 mph - N/A   Scattered Clouds
8:53 AM 44.6 °F 40.7 °F 35.6 °F 71% 29.92 in 7.0 mi SW 6.9 mph - N/A Rain Rain
9:13 AM 44.6 °F 40.7 °F 35.6 °F 71% 29.92 in 7.0 mi South 6.9 mph - N/A Rain Light Rain
9:34 AM 44.6 °F 40.7 °F 37.4 °F 76% 29.92 in 5.0 mi South 6.9 mph - 0.03 in Rain Rain
9:53 AM 44.6 °F 43.1 °F 35.6 °F 71% 29.92 in 7.0 mi SW 3.5 mph - 0.09 in Rain Rain
10:13 AM 42.8 °F 38.6 °F 37.4 °F 81% 29.91 in 3.0 mi South 6.9 mph - 0.02 in Rain Light Rain
10:33 AM 44.6 °F 40.2 °F 37.4 °F 76% 29.91 in 4.0 mi South 8.1 mph - 0.02 in Rain Rain
10:53 AM 46.4 °F 41.5 °F 39.2 °F 76% 29.91 in 3.0 mi South 10.4 mph - 0.02 in   Drizzle
11:13 AM 46.4 °F 41.1 °F 39.2 °F 76% 29.90 in 3.0 mi South 11.5 mph - 0.01 in   Heavy Drizzle
11:33 AM 46.4 °F 40.7 °F 39.2 °F 76% 29.90 in 2.0 mi South 12.7 mph - 0.02 in Rain Heavy Rain
11:54 AM 44.6 °F 39.7 °F 39.2 °F 81% 29.89 in 1.8 mi SSW 9.2 mph - 0.02 in   Haze
12:13 PM 46.4 °F 41.9 °F 39.2 °F 76% 29.90 in 4.0 mi SW 9.2 mph - N/A   Haze
12:34 PM 46.4 °F 41.9 °F 41.0 °F 81% 29.89 in 5.0 mi SW 9.2 mph - N/A   Haze
12:53 PM 48.2 °F - 42.8 °F 82% 29.89 in 7.0 mi West 8.1 mph - N/A   Scattered Clouds
1:13 PM 48.2 °F - 42.8 °F 82% 29.89 in 7.0 mi West 11.5 mph - N/A   Clear
1:33 PM 48.2 °F - 42.8 °F 82% 29.89 in 5.0 mi WNW 8.1 mph - N/A   Haze
1:53 PM 50.0 °F - 41.0 °F 71% 29.88 in 5.0 mi WNW 9.2 mph - N/A   Haze
2:13 PM 50.0 °F - 42.8 °F 76% 29.88 in 5.0 mi NW 8.1 mph - N/A   Haze
2:34 PM 50.0 °F - 41.0 °F 71% 29.88 in 5.0 mi WNW 10.4 mph - N/A   Haze
2:54 PM 50.0 °F - 41.0 °F 71% 29.88 in 4.0 mi WNW 8.1 mph - N/A   Haze
3:13 PM 51.8 °F - 42.8 °F 71% 29.88 in 5.0 mi WNW 9.2 mph - N/A   Haze
3:33 PM 50.0 °F - 42.8 °F 76% 29.88 in 5.0 mi West 11.5 mph - N/A   Haze
3:53 PM 50.0 °F - 42.8 °F 76% 29.87 in 4.0 mi West 10.4 mph - N/A   Haze
4:13 PM 50.0 °F - 41.0 °F 71% 29.87 in 5.0 mi WNW 11.5 mph - N/A   Haze
4:33 PM 51.8 °F - 42.8 °F 71% 29.87 in 5.0 mi WNW 11.5 mph - N/A   Haze
4:53 PM 51.8 °F - 42.8 °F 71% 29.87 in 5.0 mi WNW 9.2 mph - N/A   Haze
5:13 PM 51.8 °F - 42.8 °F 71% 29.87 in 5.0 mi West 10.4 mph - N/A   Haze
5:33 PM 51.8 °F - 42.8 °F 71% 29.87 in 5.0 mi West 9.2 mph - N/A   Haze
5:53 PM 51.8 °F - 41.0 °F 67% 29.87 in 7.0 mi WNW 9.2 mph - N/A   Clear
6:13 PM 51.8 °F - 41.0 °F 67% 29.87 in 7.0 mi WNW 6.9 mph - N/A   Clear
6:33 PM 51.8 °F - 39.2 °F 62% 29.87 in 7.0 mi WNW 9.2 mph - N/A   Clear
6:53 PM 50.0 °F - 39.2 °F 66% 29.87 in 7.0 mi WNW 9.2 mph - N/A   Clear
7:13 PM 46.4 °F 41.5 °F 39.2 °F 76% 29.87 in 5.0 mi WNW 10.4 mph - N/A   Haze
7:33 PM 44.6 °F 40.7 °F 37.4 °F 76% 29.87 in 4.0 mi WNW 6.9 mph - N/A   Haze
7:53 PM 44.6 °F 39.7 °F 37.4 °F 76% 29.88 in 3.0 mi West 9.2 mph - N/A   Haze
8:14 PM 42.8 °F 37.5 °F 37.4 °F 81% 29.89 in 1.0 mi WNW 9.2 mph - N/A   Haze
8:33 PM 42.8 °F 37.0 °F 37.4 °F 81% 29.89 in 1.0 mi WNW 10.4 mph - N/A   Haze
8:53 PM 41.0 °F 35.8 °F 35.6 °F 81% 29.88 in 0.2 mi West 8.1 mph - N/A   Haze
9:13 PM 41.0 °F 38.0 °F 35.6 °F 81% 29.89 in 0.5 mi West 4.6 mph - N/A   Haze
9:33 PM 39.2 °F 33.6 °F 35.6 °F 87% 29.89 in 0.2 mi WNW 8.1 mph - N/A   Haze
9:53 PM 39.2 °F 32.5 °F 35.6 °F 87% 29.90 in 0.5 mi West 10.4 mph - N/A   Haze
10:34 PM 39.2 °F 34.2 °F 35.6 °F 87% 29.89 in 1.8 mi WNW 6.9 mph - N/A   Haze
10:53 PM 39.2 °F 35.0 °F 33.8 °F 81% 29.89 in 1.5 mi West 5.8 mph - N/A   Haze
11:14 PM 39.2 °F 37.0 °F 33.8 °F 81% 29.88 in 1.5 mi WSW 3.5 mph - N/A   Haze
11:33 PM 37.4 °F 34.9 °F 33.8 °F 87% 29.88 in 1.2 mi West 3.5 mph - N/A   Mist
11:54 PM 37.4 °F 33.8 °F 33.8 °F 87% 29.88 in 1.5 mi West 4.6 mph - N/A   Mist